Left ArrowRight Arrow

Hourly Observations for May 6, 2024

Temp ( °F °C ) Dew Point ( °F °C ) Humidity (%) Winds ( mph kmh ) Pressure ( in mb ) Visibility ( mi km ) Precip ( " mm )
12:53 am 00:53 Clear 72 22.2 65 18.3 79 79 SSW 3 6 30.02 1017 10 16 0.00 0.00
1:53 am 01:53 Clear 71 21.7 65 18.3 81 81 SSW 5 7 30.02 1017 10 16 0.00 0.00
2:53 am 02:53 Clear 70 21.1 65 18.3 84 84 Calm 30.01 1016 10 16 0.00 0.00
3:53 am 03:53 Clear 67 19.4 64 17.8 90 90 Calm 30.01 1016 10 16 0.00 0.00
4:53 am 04:53 Clear 67 19.4 64 17.8 90 90 Calm 30.02 1017 10 16 0.00 0.00
5:53 am 05:53 Sunny 68 20 66 18.9 93 93 ESE 3 6 30.03 1017 10 16 0.00 0.00
6:17 am 06:17 Mostly Sunny 68 20 66 18.9 93 93 SE 3 6 30.04 1017 10 16 0.00 0.00
6:39 am 06:39 Mostly Cloudy 69 20.6 66 18.9 90 90 SE 6 9 30.05 1018 8 13 0.00 0.00
6:53 am 06:53 Cloudy 69 20.6 67 19.4 93 93 SE 5 7 30.04 1017 7 11 0.00 0.00
7:30 am 07:30 Partly Cloudy with Mist and Fog 70 21.1 68 20 93 93 ESE 6 9 30.06 1018 6 10 0.00 0.00
7:40 am 07:40 Mostly Cloudy with Mist and Fog 70 21.1 68 20 93 93 ESE 5 7 30.06 1018 6 10 0.00 0.00
7:53 am 07:53 Mostly Cloudy with Mist and Fog 71 21.7 68 20 90 90 ESE 5 7 30.06 1018 6 10 0.00 0.00
8:35 am 08:35 Mostly Sunny 74 23.3 70 21.1 87 87 SSE 7 11 30.07 1018 9 14 0.00 0.00
8:53 am 08:53 Mostly Sunny 76 24.4 70 21.1 82 82 SSE 5 7 30.06 1018 10 16 0.00 0.00
9:53 am 09:53 Sunny 81 27.2 69 20.6 67 67 WSW 7 11 30.07 1018 10 16 0.00 0.00
10:53 am 10:53 Sunny 83 28.3 67 19.4 59 59 S 9 15 30.06 1018 10 16 0.00 0.00
11:53 am 11:53 Mostly Sunny 86 30 66 18.9 51 51 SSE 10 17 30.04 1017 10 16 0.00 0.00
12:53 pm 12:53 Mostly Sunny 88 31.1 66 18.9 48 48 S 9 15 30.02 1017 10 16 0.00 0.00
1:53 pm 13:53 Mostly Cloudy 89 31.7 65 18.3 45 45 S 12 19 30.00 1016 10 16 0.00 0.00
2:53 pm 14:53 Partly Cloudy 90 32.2 65 18.3 44 44 SW 9 15 29.97 1015 10 16 0.00 0.00
3:53 pm 15:53 Mostly Cloudy 89 31.7 63 17.2 42 42 SSW 10 17 29.95 1014 10 16 0.00 0.00
4:53 pm 16:53 Mostly Cloudy 90 32.2 65 18.3 44 44 SW 9 15 29.94 1014 10 16 0.00 0.00
5:53 pm 17:53 Sunny 87 30.6 62 16.7 43 43 SW 13 20 29.94 1014 10 16 0.00 0.00
6:53 pm 18:53 Sunny 83 28.3 62 16.7 49 49 SSW 12 19 29.94 1014 10 16 0.00 0.00
7:53 pm 19:53 Clear 79 26.1 62 16.7 56 56 SSW 6 9 29.94 1014 10 16 0.00 0.00
8:53 pm 20:53 Clear 77 25 62 16.7 60 60 SSW 6 9 29.96 1015 10 16 0.00 0.00
9:53 pm 21:53 Clear 76 24.4 65 18.3 69 69 SSW 8 13 29.96 1015 10 16 0.00 0.00
10:53 pm 22:53 Clear 73 22.8 66 18.9 79 79 SSW 8 13 29.96 1014 10 16 0.00 0.00
11:53 pm 23:53 Clear 72 22.2 67 19.4 84 84 SSW 7 11 29.95 1014 10 16 0.00 0.00

Powered by Vaisala Xweather